Location: Ch�tillon
(48.8024°N, 2.2935°E)
Time: 22:57:41
(UTC+00:00)

Okean O Rocket - Pass Details

Date: 16 October 2021
Orbit: 623 x 643 km, 98.2° (Epoch: 27 November)

Event Time Altitude Azimuth Distance (km) Brightness Sun altitude
Rises 17:56:22 0° 165° (SSE) 2,893 4.9 -10.2°
Reaches altitude 10° 17:58:33 10° 166° (SSE) 1,991 4.0 -10.5°
Maximum altitude 18:02:53 87° 253° (WSW) 632 1.6 -11.3°
Drops below altitude 10° 18:07:16 10° 345° (NNW) 2,010 4.4 -12.0°
Sets 18:09:28 0° 346° (NNW) 2,924 5.2 -12.3°
